• In Czech Republic
  • List of Countries
  • For 7 days
  • Water Temperature
  • Satellite Maps
  • Weather Map
  • Weather Widgets
  • user-avatar
    Login

    Hourly Weather Dzierwany

    Today, 24 June, Sunday

    Time Temperature Precipitation Wind Pressure Humidity
    00:00 +7°C° 0 mm 2 mps 735 mmHg 94%
    01:00 +7°C° 0 mm 2 mps 735 mmHg 94%
    02:00 +7°C° 0 mm 2 mps 734 mmHg 95%
    03:00 +7°C° 0 mm 2 mps 734 mmHg 95%
    04:00 +6°C° 0 mm 2 mps 734 mmHg 95%
    05:00 +6°C° 0 mm 2 mps 734 mmHg 95%
    06:00 +8°C° 0 mm 3 mps 734 mmHg 90%
    07:00 +10°C° 0 mm 3 mps 734 mmHg 85%
    08:00 +12°C° 0 mm 3 mps 734 mmHg 80%
    09:00 +12°C° 0.4 mm 3 mps 734 mmHg 78%
    10:00 +13°C° 0.4 mm 3 mps 734 mmHg 76%
    11:00 +14°C° 0.4 mm 3 mps 734 mmHg 75%
    12:00 +14°C° 0.8 mm 3 mps 734 mmHg 77%
    13:00 +14°C° 0.8 mm 3 mps 734 mmHg 79%
    14:00 +14°C° 0.8 mm 3 mps 735 mmHg 80%
    15:00 +14°C° 0.7 mm 3 mps 735 mmHg 80%
    16:00 +14°C° 0.7 mm 3 mps 734 mmHg 80%
    17:00 +14°C° 0.7 mm 3 mps 734 mmHg 80%
    18:00 +13°C° 0.3 mm 3 mps 735 mmHg 83%
    19:00 +12°C° 0.3 mm 3 mps 735 mmHg 86%
    20:00 +13°C° 0.3 mm 2 mps 735 mmHg 89%
    21:00 +12°C° 0 mm 2 mps 735 mmHg 91%
    22:00 +10°C° 0 mm 2 mps 735 mmHg 93%
    23:00 +9°C° 0 mm 2 mps 735 mmHg 95%

    Tomorrow, 25 June, Monday

    Time Temperature Precipitation Wind Pressure Humidity
    00:00 +9°C° 0.2 mm 2 mps 736 mmHg 96%
    01:00 +8°C° 0.2 mm 3 mps 736 mmHg 96%
    02:00 +8°C° 0.2 mm 3 mps 736 mmHg 97%
    03:00 +8°C° 0.2 mm 3 mps 736 mmHg 97%
    04:00 +8°C° 0.2 mm 2 mps 736 mmHg 97%
    05:00 +8°C° 0.2 mm 2 mps 736 mmHg 97%
    06:00 +9°C° 0.5 mm 3 mps 736 mmHg 96%
    07:00 +9°C° 0.5 mm 3 mps 736 mmHg 96%
    08:00 +10°C° 0.5 mm 3 mps 736 mmHg 95%
    09:00 +10°C° 0.5 mm 4 mps 737 mmHg 93%
    10:00 +11°C° 0.5 mm 4 mps 737 mmHg 91%
    11:00 +12°C° 0.5 mm 4 mps 737 mmHg 89%
    12:00 +12°C° 0.7 mm 5 mps 737 mmHg 89%
    13:00 +12°C° 0.7 mm 5 mps 737 mmHg 90%
    14:00 +12°C° 0.7 mm 5 mps 737 mmHg 90%
    15:00 +12°C° 0.4 mm 5 mps 737 mmHg 89%
    16:00 +13°C° 0.4 mm 4 mps 737 mmHg 88%
    17:00 +13°C° 0.4 mm 4 mps 737 mmHg 87%
    18:00 +13°C° 0.2 mm 4 mps 737 mmHg 88%
    19:00 +12°C° 0.2 mm 4 mps 737 mmHg 89%
    20:00 +12°C° 0.2 mm 3 mps 737 mmHg 90%
    21:00 +11°C° 0.2 mm 3 mps 737 mmHg 91%
    22:00 +11°C° 0.2 mm 3 mps 737 mmHg 93%
    23:00 +10°C° 0.2 mm 3 mps 738 mmHg 94%

    Day after tomorrow, 26 June, Tuesday

    Time Temperature Precipitation Wind Pressure Humidity
    00:00 +10°C° 0.4 mm 3 mps 738 mmHg 95%
    01:00 +10°C° 0.4 mm 3 mps 738 mmHg 95%
    02:00 +10°C° 0.4 mm 3 mps 738 mmHg 95%
    03:00 +10°C° 0.4 mm 3 mps 738 mmHg 96%
    04:00 +10°C° 0.4 mm 3 mps 738 mmHg 96%
    05:00 +10°C° 0.4 mm 3 mps 738 mmHg 97%
    06:00 +12°C° 0.2 mm 2 mps 738 mmHg 96%
    07:00 +12°C° 0.2 mm 2 mps 738 mmHg 95%
    08:00 +13°C° 0.2 mm 2 mps 738 mmHg 94%
    09:00 +14°C° 0.7 mm 2 mps 738 mmHg 91%
    10:00 +15°C° 0.7 mm 2 mps 739 mmHg 87%
    11:00 +16°C° 0.7 mm 2 mps 739 mmHg 84%
    12:00 +17°C° 1.2 mm 2 mps 739 mmHg 82%
    13:00 +17°C° 1.2 mm 2 mps 739 mmHg 80%
    14:00 +18°C° 1.2 mm 2 mps 739 mmHg 78%
    15:00 +18°C° 1 mm 2 mps 739 mmHg 78%
    16:00 +18°C° 1 mm 2 mps 739 mmHg 77%
    17:00 +18°C° 1 mm 2 mps 739 mmHg 76%
    18:00 +17°C° 0.8 mm 2 mps 739 mmHg 80%
    19:00 +17°C° 0.8 mm 2 mps 739 mmHg 85%
    20:00 +16°C° 0.8 mm 2 mps 739 mmHg 90%
    21:00 +15°C° 0.3 mm 2 mps 739 mmHg 91%
    22:00 +14°C° 0.3 mm 2 mps 739 mmHg 93%
    23:00 +13°C° 0.3 mm 2 mps 740 mmHg 95%

    27 June, Wednesday

    Time Temperature Precipitation Wind Pressure Humidity
    00:00 +12°C° 0 mm 2 mps 740 mmHg 95%
    01:00 +12°C° 0 mm 2 mps 740 mmHg 95%
    02:00 +10°C° 0 mm 2 mps 740 mmHg 96%
    03:00 +10°C° 0 mm 2 mps 740 mmHg 96%
    04:00 +10°C° 0 mm 2 mps 740 mmHg 96%
    05:00 +10°C° 0 mm 2 mps 740 mmHg 96%
    06:00 +12°C° 0 mm 3 mps 741 mmHg 93%
    07:00 +13°C° 0 mm 3 mps 741 mmHg 90%
    08:00 +16°C° 0 mm 3 mps 742 mmHg 87%
    09:00 +17°C° 0.2 mm 3 mps 742 mmHg 82%
    10:00 +19°C° 0.2 mm 3 mps 742 mmHg 78%
    11:00 +20°C° 0.2 mm 4 mps 742 mmHg 73%
    12:00 +21°C° 0.3 mm 4 mps 742 mmHg 72%
    13:00 +21°C° 0.3 mm 4 mps 742 mmHg 71%
    14:00 +21°C° 0.3 mm 4 mps 742 mmHg 69%
    15:00 +21°C° 0.4 mm 4 mps 742 mmHg 72%
    16:00 +21°C° 0.4 mm 4 mps 742 mmHg 75%
    17:00 +21°C° 0.4 mm 3 mps 742 mmHg 78%
    18:00 +20°C° 0.3 mm 3 mps 742 mmHg 82%
    19:00 +19°C° 0.3 mm 3 mps 742 mmHg 86%
    20:00 +19°C° 0.3 mm 3 mps 742 mmHg 90%
    21:00 +18°C° 0.2 mm 3 mps 742 mmHg 90%
    22:00 +17°C° 0.2 mm 3 mps 742 mmHg 91%
    23:00 +16°C° 0.2 mm 3 mps 741 mmHg 92%

    28 June, Thursday

    Time Temperature Precipitation Wind Pressure Humidity
    00:00 +15°C° 0 mm 4 mps 741 mmHg 93%
    01:00 +15°C° 0 mm 4 mps 741 mmHg 93%
    02:00 +14°C° 0 mm 4 mps 740 mmHg 94%
    03:00 +14°C° 0 mm 4 mps 740 mmHg 94%
    04:00 +14°C° 0 mm 4 mps 740 mmHg 93%
    05:00 +14°C° 0 mm 4 mps 740 mmHg 93%
    06:00 +16°C° 0 mm 5 mps 739 mmHg 88%
    07:00 +17°C° 0 mm 6 mps 739 mmHg 83%
    08:00 +20°C° 0 mm 6 mps 739 mmHg 78%
    09:00 +21°C° 0 mm 7 mps 738 mmHg 75%
    10:00 +22°C° 0 mm 7 mps 738 mmHg 72%
    11:00 +23°C° 0 mm 8 mps 738 mmHg 69%
    12:00 +23°C° 1 mm 7 mps 737 mmHg 75%
    13:00 +22°C° 1 mm 6 mps 737 mmHg 81%
    14:00 +22°C° 1 mm 5 mps 736 mmHg 88%
    15:00 +22°C° 1.7 mm 6 mps 735 mmHg 87%
    16:00 +22°C° 1.7 mm 6 mps 735 mmHg 87%
    17:00 +22°C° 1.7 mm 6 mps 734 mmHg 87%
    18:00 +21°C° 1.3 mm 6 mps 734 mmHg 88%
    19:00 +21°C° 1.3 mm 6 mps 734 mmHg 89%
    20:00 +21°C° 1.3 mm 5 mps 733 mmHg 89%
    21:00 +21°C° 0.8 mm 5 mps 733 mmHg 91%
    22:00 +20°C° 0.8 mm 5 mps 733 mmHg 92%
    23:00 +20°C° 0.8 mm 4 mps 732 mmHg 94%

    29 June, Friday

    Time Temperature Precipitation Wind Pressure Humidity
    00:00 +20°C° 0 mm 4 mps 732 mmHg 95%
    01:00 +19°C° 0 mm 4 mps 732 mmHg 96%
    02:00 +19°C° 0 mm 3 mps 732 mmHg 97%
    03:00 +19°C° 0.1 mm 3 mps 731 mmHg 97%
    04:00 +18°C° 0.1 mm 3 mps 731 mmHg 98%
    05:00 +18°C° 0.1 mm 2 mps 731 mmHg 98%
    06:00 +19°C° 0 mm 2 mps 731 mmHg 95%
    07:00 +20°C° 0 mm 2 mps 731 mmHg 91%
    08:00 +20°C° 0 mm 2 mps 731 mmHg 88%
    09:00 +21°C° 0 mm 2 mps 731 mmHg 81%
    10:00 +24°C° 0 mm 2 mps 731 mmHg 75%
    11:00 +25°C° 0 mm 2 mps 731 mmHg 68%
    12:00 +25°C° 0 mm 2 mps 731 mmHg 64%
    13:00 +26°C° 0 mm 2 mps 731 mmHg 60%
    14:00 +27°C° 0 mm 2 mps 730 mmHg 56%
    15:00 +27°C° 0.1 mm 2 mps 730 mmHg 57%
    16:00 +27°C° 0.1 mm 2 mps 730 mmHg 58%
    17:00 +27°C° 0.1 mm 2 mps 730 mmHg 58%
    18:00 +26°C° 0 mm 1 mps 730 mmHg 63%
    19:00 +24°C° 0 mm 1 mps 729 mmHg 68%
    20:00 +23°C° 0 mm 1 mps 729 mmHg 73%
    21:00 +22°C° 0 mm 1 mps 729 mmHg 75%
    22:00 +19°C° 0 mm 0 mps 729 mmHg 77%
    23:00 +18°C° 0 mm 0 mps 729 mmHg 79%
    Show more